Regional Weather Roundup
Issued by NWS

Home | Current Version | Previous Version | Text Only | Print | Product List | Glossary On
Versions: 1 2 3 4 5 6 7 8 9 10 11 12 13 14 15 16 17 18 19 20 21 22 23 24 25 26 27 28 29 30 31 32 33 34 35 36 37 38 39 40 41 42 43 44 45 46 47 48 49 50
078
ASUS43 KDTX 172001
RWRMI
MICHIGAN HOURLY REGIONAL WEATHER ROUNDUP
NATIONAL WEATHER SERVICE DETROIT/PONTIAC MI
300 PM EST TUE JAN 17 2017

NOTE: "FAIR" INDICATES FEW OR NO CLOUDS BELOW 12,000 FEET WITH NO
SIGNIFICANT WEATHER AND/OR OBSTRUCTION TO VISIBILITY.

MIZ047>049-052>055-059>063-066>070-074>076-081>083-172100-
SOUTHEAST LOWER MICHIGAN

CITY           SKY/WX    TMP DP  RH WIND       PRES   REMARKS
ADRIAN         CLOUDY    43  43 100 W12       29.81R
ALMA           LGT RAIN  34  34  99 NW3       29.79R VSB 1
ANN ARBOR      CLOUDY    44  43  96 SW12      29.77R
BAD AXE        FOG       35  35 100 CALM      29.76R VSB 1/4
CARO           LGT SNOW  36  35  96 NW5       29.75S VSB 3/4 WCI  32
DETROIT        CLOUDY    47  45  93 SW13      29.78R FOG
FLINT          FOG       37  36  96 W7        29.77R VSB 1/4 WCI  32
GROSSE ILE     CLOUDY    46  45  94 SW12G17   29.76R FOG
HILLSDALE      FOG       39  39 100 SW13G18   29.79R VSB 1   WCI  32
HOWELL         CLOUDY    40  40  97 W10       29.76R FOG     WCI  34

CITY           SKY/WX    TMP DP  RH WIND       PRES   REMARKS
JACKSON        CLOUDY    42  40  92 W12       29.78R
LAMBERTVILLE   CLOUDY    47  45  90 W13G23    29.80R FOG
LANSING        CLOUDY    38  35  89 W5        29.78R FOG     WCI  34
LAPEER         FOG       36  36 100 W5        29.75R VSB 1/4 WCI  32
MASON          CLOUDY    40  40 100 W5        29.77S FOG
MONROE         CLOUDY    46  45  97 W16G22    29.78R
MT. CLEMENS    CLOUDY    43  43 100 W7        29.74R FOG
PONTIAC        CLOUDY    39  37  92 W5        29.74R FOG
PORT HOPE        N/A     35  34  96 CALM      29.75R
PORT HURON     FOG       39  39 100 CALM      29.74S VSB 1/2
TRI CITIES     FOG       35  35 100 NW6       29.78S VSB 1/2 WCI  30
MIDLAND        FOG       36  35  96 CALM      29.77S VSB 3/4
TROY           CLOUDY    44  43  94 W6        29.76S FOG
SAGINAW HB     CLOUDY    36  34  93 NW5       29.77R FOG     WCI  32
$$
MIZ043>046-050>051-056>058-064>065-071>073-077>080-172100-
SOUTHWEST LOWER MICHIGAN

CITY           SKY/WX    TMP DP  RH WIND       PRES   REMARKS
BATTLE CREEK   CLOUDY    39  39 100 W12       29.81R FOG     WCI  32
BENTON HARBOR  CLOUDY    39  37  92 W10       29.86R FOG     WCI  32
BIG RAPIDS     CLOUDY    34  33  96 CALM      29.78R FOG
COLDWATER      CLOUDY    41  41 100 W13       29.82R FOG
FREMONT        CLOUDY    35  35 100 CALM      29.79S FOG
HOLLAND        FOG       37  36  96 W7        29.82R VSB 1/2 WCI  32
GRAND RAPIDS   DRZL/FOG  37  35  92 CALM      29.79R VSB 3/4
IONIA          LGT RAIN  35  35  99 CALM      29.78R
KALAMAZOO      CLOUDY    39  36  89 W10       29.83R FOG     WCI  32
LUDINGTON      CLOUDY    36  36 100 CALM      29.79S FOG
MARSHALL       CLOUDY    40  39  98 SW15      29.79R FOG     WCI  31
MOUNT PLEASANT FOG       35  34  98 CALM      29.78R VSB 1
MUSKEGON       DRZL/FOG  37  36  96 NW3       29.81R VSB 3/4
SOUTH HAVEN    FOG       37  37  99 W9        29.84R VSB 3/4 WCI  31
$$
MIZ016>042-172100-
NORTHERN LOWER MICHIGAN

CITY           SKY/WX    TMP DP  RH WIND       PRES   REMARKS
ALPENA         CLOUDY    35  33  92 E9        29.81F FOG     WCI  28
BELLAIRE       CLOUDY    35  32  90 NE3       29.82R
CADILLAC       FOG       33  32  96 CALM      29.76F VSB 3/4
CHARLEVOIX     CLOUDY    35  34  96 E3        29.85S FOG
FRANKFORT      CLOUDY    37  36  97 NE3       29.80S FOG
GAYLORD        CLOUDY    34  31  88 E6        29.79R FOG     WCI  29
GRAYLING       CLOUDY    34  33  96 E3        29.79S FOG
HARBOR SPRINGS CLOUDY    33  32  95 NE8       29.83R WCI  26
HOUGHTON LAKE  CLOUDY    34  33  96 E5        29.78R WCI  30
MANISTEE       MIX PCPN  37  36  96 CALM      29.79S FOG
OSCODA         FOG       36  35  96 NE3       29.79R VSB 1
PELLSTON       CLOUDY    33  30  88 NE10      29.84S FOG     WCI  25
ROGERS CITY    CLOUDY    34  32  94 E12       29.84S FOG     WCI  25
TRAVERSE CITY  DRIZZLE   37  33  85 NE5       29.80R WCI  33
$$
MIZ007>008-015-172100-
EASTERN UPPER MICHIGAN

CITY           SKY/WX    TMP DP  RH WIND       PRES   REMARKS
KINROSS        CLOUDY    34  26  72 NE8       29.86R WCI  27
MACKINAC ISLAN CLOUDY    33  29  88 E14G22    29.84S WCI  23
NEWBERRY       CLOUDY    34  28  80 NE6       29.85F WCI  29
S. S. MARIE    CLOUDY    36  25  64 E5        29.86F WCI  32
MUNISING         N/A     34  29  82 NE5       29.88R WCI  30
$$
MIZ004>006-011>014-085-172100-
CENTRAL UPPER MICHIGAN

CITY           SKY/WX    TMP DP  RH WIND       PRES   REMARKS
MANISTIQUE     CLOUDY    34  33  96 NE5       29.85S FOG     WCI  30
ESCANABA       CLOUDY    35  34  96 NE5       29.86S FOG     WCI  31
SAWYER-GWINN   CLOUDY    36  28  75 NE7       29.86R WCI  30
$$
MIZ001>003-009>011-084-172100-
WESTERN UPPER MICHIGAN

CITY           SKY/WX    TMP DP  RH WIND       PRES   REMARKS
IRON MOUNTAIN  CLOUDY    37  31  78 N6        29.84S WCI  32
HOUGHTON       MOSUNNY   37  28  70 NW5       29.87S WCI  33
COPPER HARBOR    N/A     37  31  78 N5        29.89S WCI  33
IRONWOOD       SUNNY     36  26  67 SW3       29.89F
$$

ABBREVIATIONS USED IN REMARKS
   TC - TEMPERATURE IN CELSIUS
  WCI - WIND CHILL INDEX
   HX - HEAT INDEX
  VSB - VISIBILITY





USA.gov is the U.S. government's official web portal to all federal, state and local government web resources and services.